Showing default

LES 1, 1002

Orbit data source: Space-Track

LES 1, 1002 is a payload satellite owned by USAF SSD (US) in LEO that was launched on Thu, 11 Feb 1965 UTC via a TITAN IIIA launch vehicle from the Air Force Eastern Test Range (AFETR). Payload-class satellites include a variety of spacecraft equipped with specific instruments for various scientific and technological missions. These include communications satellites like Starlink; space stations such as the ISS; scientific satellites like the Hubble; Earth observation satellites from companies like Planet Labs, Umbra, and HawkEye 360; GPS; miniature CubeSats for education and research; and military/defense satellites.

Loading next visibility...
Identifier
1002, 1965-008C
Orbit
LEO
Country
Flag of USUS
Related business
Manufacturer
MIT-LL
Mission
Spacecraft
Bus & Motor
LES, STAR 13A
Mass
158 kg wet, 31 kg dry
Launch date (UTC)
1965-02-11 (61 years ago)
Launch vehicle
TITAN IIIA
Launch site
Air Force Eastern Test Range (AFETR)
Object type
Payload
Rocket body
Debris
Shape & HBR
Unknown
Radar Cross Section
Medium (>0.1 m² and <1 m²)

Expand to show TLE details & history
Last TLE update: 14 hours ago

TLE from 14 hours ago
0 LES 1
1 01002U 65008C   26036.02942092  .00000007  00000-0 -18661-3 0  9990
2 01002  32.1489 357.7878 0015591 154.7634 205.3627  9.88354637203113
Epoch: 2026-02-05T00:42Z
TLE epoch observation values (Epoch: 2026-02-05T00:42:21.967Z)
Latitude
-0°
Longitude
-147.99124°
Altitude
2,805.662 km
Speed
6.586 km/s
True Right ascension
23h 51m 09s
True Declination
0° 00' 00"
Sunlit
Object was in daylight at epoch
Visualization orbit readout
Latitude
Unknown
Longitude
Unknown
Altitude
Unknown
Speed
Unknown
Apparent Right ascension
Unknown
Apparent Declination
Unknown
Sunlit
N/A
Visualization observer readout
Local Sidereal Time
17:13:29
Azimuth
Unknown
Elevation
Unknown
Doppler factor
Unknown
Orbital elements
Apogee altitude
2,810.85 km
Perigee altitude
2,782.241 km
Semi-major axis
9,174.683 km
Eccentricity
0.00156
Inclination
32.1489°
RAAN
357.7878°
Arg. of periapsis
154.7634°
True anomaly
205.28631°
Mean anomaly
205.3627°
Eccentric anomaly
205.32449°
Mean motion
2.46977 °/min
Orbital period
145.76 mins
BSTAR
-0.00018661
Loading maneuver chart data...
Computing Atmospheric mass density...
Loading historical data...
Loading historical data...
Loading historical data...
Loading historical data...
Loading historical data...
Loading historical data...
Loading historical data...
Other satellites on launch #8 in the year 1965 (1965-02-11 UTC)

Documentation

Showing up to 5 results
|